Tracking 25709 objects as of 24-May-2022
HD Live streaming from Space Station
objects crossing your sky now

ONEWEB-0337

Track ONEWEB-0337 now!
10-day predictions
ONEWEB-0337 is classified as:


NORAD ID: 49203
Int'l Code: 2021-083T
Perigee: 1,215.3 km
Apogee: 1,218.3 km
Inclination: 87.9 °
Period: 109.6 minutes
Semi major axis: 7587 km
RCS: Unknown
Launch date: September 14, 2021
Source: United Kingdom (UK)
Launch site: TYURATAM MISSILE AND SPACE COMPLEX (TTMTR)
aabbcc
Your satellite tracking list
Your tracking list is empty




NASA's NSSDC Master Catalog

Two Line Element Set (TLE):
1 49203U 21083T   22143.91668981 -.00043952  00000-0 -12091+0 0  9999
2 49203  87.9163 255.2423 0001983 110.5765   0.4600 13.13501399  1302
Source of the keplerian elements: AFSPC